Powrót do katalogu

KORSAT 7

AktywnyMilitariaSSO
NORAD 58463·PAYLOAD·🇰🇷 South Korea

Wystrzelony Dec 1, 2023 z Vandenberg Space Force Base

Loading…

Następne Przeloty (najbliższe 24 godziny)

TLE

ŚwieżeSource: Space-Track

Epoka: Sep 14, 2026, 15:34 UTC

1 58463U 23185B   26257.64910399  .00001313  00000-0  10637-3 0  9996
2 58463  97.6371 320.4305 0026615  24.6252 335.6236 15.01170133152704

Śledź KORSAT 7 w czasie rzeczywistym z AllMySat

Download on the App Store